Location: Eboldshausen
(51.7766°N, 10.0050°E)
Time: 16:59:31
(UTC+00:00)

Cosmos 1954 Rocket - Pass Details

Date: 15 November 2025
Orbit: 748 x 776 km, 74.0° (Epoch: 10 December)

Event Time Altitude Azimuth Distance (km) Brightness Sun altitude
Rises 18:21:59 0° 201° (SSW) 3,239 7.5 -26.5°
Reaches altitude 10° 18:24:22 10° 200° (SSW) 2,314 6.7 -26.8°
Enters shadow 18:28:32 58° 194° (SSW) 901 4.3 -27.5°
